Oakdale, LA

9:54 PM CDT on September 20, 2017 (GMT -0500)
Oakdale

Weather History for KACP - April, 2013

Change the Weather History Date:

Wednesday, April 3, 2013

  Actual Average (KPOE) Record (KPOE)
Temperature  
Mean Temperature 58 °F -  
Max Temperature 66 °F 72 °F 84 °F (2007)
Min Temperature 50 °F 54 °F 39 °F (2016)
Degree Days  
Heating Degree Days 7    
Growing Degree Days 8 (Base 50)    
Moisture  
Dew Point 52 °F    
Average Humidity 90    
Maximum Humidity 100    
Minimum Humidity 78    
Precipitation  
Precipitation 0.93 in - - ()
Sea Level Pressure  
Sea Level Pressure 29.92 in    
Wind  
Wind Speed 9 mph (North)    
Max Wind Speed 23 mph    
Max Gust Speed 33 mph    
Visibility 8 miles    
Events Rain , Thunderstorm    
Averages and records for this station are not official NWS values.
T = Trace of Precipitation, MM = Missing Value Source: NWS Daily Summary

Daily Weather History Graph

Daily Weather History Graph

Search for Another Location

Airport or City:

Trip Planner

Search our weather history database for the weather conditions in past years. The results will help you decide how hot, cold, wet, or windy it might be!

Date:

Astronomy

Apr. 03, 2013 Rise Set
Actual Time 6:56 AM CDT 7:31 PM CDT
Civil Twilight 6:32 AM CDT 7:55 PM CDT
Nautical Twilight 6:04 AM CDT 8:24 PM CDT
Astronomical Twilight 5:35 AM CDT 8:53 PM CDT
Moon 2:12 AM CDT (4/3) 1:08 PM CDT (4/3)
Length of Visible Light 13h 22m
Length of Day
12h 34m
Last Quarter, 44% of the Moon is Illuminated
Apr 3
Last Quarter
Apr 10
New
Apr 18
First Quarter
Apr 25
Full
May 2
Last Quarter

Hourly Weather History & Observations

Time (CDT) Temp. Dew Point Humidity Pressure Visibility Wind Dir Wind Speed Gust Speed Precip Events Conditions
12:15 AM 66.2 °F 59.0 °F 78% 29.93 in 10.0 mi NNE 5.8 mph - N/A Rain Light Rain
12:35 AM 64.4 °F 59.0 °F 83% 29.91 in 10.0 mi NE 6.9 mph - N/A   Overcast
12:55 AM 64.4 °F 59.0 °F 83% 29.90 in 10.0 mi NE 8.1 mph - N/A   Light Drizzle
1:15 AM 62.6 °F 57.2 °F 82% 29.90 in 10.0 mi NNE 6.9 mph - N/A Rain , Thunderstorm Light Thunderstorms and Rain
1:35 AM 60.8 °F 55.4 °F 82% 29.92 in 10.0 mi North 8.1 mph - N/A Rain , Thunderstorm Light Thunderstorms and Rain
1:55 AM 59.0 °F 55.4 °F 88% 29.94 in 7.0 mi NNW 13.8 mph 21.9 mph 0.04 in Rain , Thunderstorm Heavy Thunderstorms and Rain
2:15 AM 57.2 °F 55.4 °F 94% 29.93 in 4.0 mi North 12.7 mph 18.4 mph 0.09 in Rain , Thunderstorm Heavy Thunderstorms and Rain
2:35 AM 57.2 °F 53.6 °F 88% 29.93 in 5.0 mi North 10.4 mph 16.1 mph 0.16 in Rain , Thunderstorm Rain
2:55 AM 55.4 °F 51.8 °F 88% 29.96 in 5.0 mi North 9.2 mph - 0.24 in Rain Heavy Rain
3:15 AM 53.6 °F 51.8 °F 94% 29.97 in 5.0 mi North 12.7 mph - 0.06 in Rain , Thunderstorm Thunderstorms and Rain
3:35 AM 53.6 °F 50.0 °F 88% 29.97 in 5.0 mi North 9.2 mph - 0.15 in Rain Heavy Rain
3:55 AM 51.8 °F 50.0 °F 94% 29.97 in 5.0 mi NNW 10.4 mph - 0.24 in Rain Heavy Rain
4:15 AM 51.8 °F 50.0 °F 94% 29.97 in 5.0 mi NNW 12.7 mph 17.3 mph 0.09 in Rain Heavy Rain
4:35 AM 51.8 °F 50.0 °F 94% 29.97 in 5.0 mi North 9.2 mph - 0.20 in Rain , Thunderstorm Heavy Thunderstorms and Rain
4:55 AM 50.0 °F 48.2 °F 94% 29.96 in 7.0 mi North 11.5 mph - 0.28 in Rain Rain
5:15 AM 50.0 °F 48.2 °F 94% 29.93 in 5.0 mi ENE 17.3 mph - 0.05 in Rain Rain
5:35 AM 50.0 °F 48.2 °F 94% 29.78 in 4.0 mi ENE 23.0 mph 33.4 mph 0.12 in Rain Light Rain
5:55 AM 51.8 °F 50.0 °F 94% 29.85 in 10.0 mi NNW 13.8 mph 19.6 mph 0.13 in Rain Light Rain
6:15 AM 53.6 °F 50.0 °F 88% 29.89 in 10.0 mi NNW 9.2 mph - N/A   Unknown
6:35 AM 51.8 °F 50.0 °F 94% 29.91 in 10.0 mi North 4.6 mph - N/A   Unknown
6:55 AM 51.8 °F 50.0 °F 94% 29.88 in 10.0 mi North 6.9 mph - N/A   Unknown
7:15 AM 53.6 °F 50.0 °F 88% 29.92 in 10.0 mi ENE 5.8 mph - N/A   Unknown
7:35 AM 51.8 °F 51.8 °F 100% 29.85 in 7.0 mi NE 4.6 mph 16.1 mph N/A   Unknown
7:55 AM 53.6 °F 51.8 °F 94% 29.90 in 10.0 mi North 4.6 mph 16.1 mph N/A   Unknown
8:15 AM 53.6 °F 51.8 °F 94% 29.90 in 10.0 mi North 5.8 mph - N/A   Unknown
8:35 AM 53.6 °F 51.8 °F 94% 29.91 in 10.0 mi North 6.9 mph - N/A   Unknown